Regional Weather Roundup
Issued by NWS

Home | Current Version | Previous Version | Text Only | Print | Product List | Glossary Off
Versions: 1 2 3 4 5 6 7 8 9 10 11 12 13 14 15 16 17 18 19 20 21 22 23 24 25 26 27 28 29 30 31 32 33 34 35 36 37 38 39 40 41 42 43 44 45 46 47 48 49 50

000
ASUS43 KDMX 181801
RWRIA

WEATHER ROUNDUP FOR IOWA
NATIONAL WEATHER SERVICE DES MOINES IA
1200 PM CST SAT NOV 18 2017

NOTE: "FAIR" INDICATES FEW OR NO CLOUDS BELOW 12,000 FEET WITH NO
SIGNIFICANT WEATHER AND/OR OBSTRUCTIONS TO VISIBILITY.

* - THESE STATIONS ARE NOT NWS STATIONS...THUS NOT UNDER NWS
QUALITY CONTROL.  THEY ALSO DO NOT REPORT WEATHER SUCH
AS PRECIPITATION OR FOG.

IAZ001>003-012>014-020>022-031>034-043>046-181900-
   NORTHWEST IOWA

CITY           SKY/WX    TMP DP  RH WIND       PRES   REMARKS
CARROLL *      PTSUNNY   41  28  60 NW25G32   29.90R
CHEROKEE *     SUNNY     40  29  62 N13G23    29.94R WCI  33
DENISON *      SUNNY     41  30  65 N22G31    29.94R
LE MARS *      SUNNY     41  27  56 NW18G31   29.97R
ORANGE CITY *  SUNNY     39  27  60 NW18G31   29.96R WCI  30
SHELDON *      SUNNY     37  25  60 NW26G32   29.93R WCI  26
SIOUX CITY     SUNNY     41  30  65 NW24G35   29.98R
6HR MIN TEMP:  33; 6HR MAX TEMP:  41;

SPENCER        SUNNY     38  22  52 N26G37    29.92R WCI  26
6HR MIN TEMP:  28; 6HR MAX TEMP:  39;

STORM LAKE *   SUNNY     39  28  65 NW22G29   29.91R WCI  29
$$

IAZ055>058-069>071-079>083-090>094-181900-
   SOUTHWEST IOWA

CITY           SKY/WX    TMP DP  RH WIND       PRES   REMARKS
ATLANTIC *     PTSUNNY   45  32  61 N21G28    29.91R
AUDUBON *      PTSUNNY   43  30  61 NW21G30   29.91R
CLARINDA *     CLOUDY    45  32  61 N21G30      N/A
COUNCIL BLFS * MOSUNNY   43  34  70 NW25      29.95R
CRESTON *      MOSUNNY   43  32  65 NW24      29.87R
HARLAN  *      SUNNY     43  30  61 NW22G33   29.96R
LAMONI         CLOUDY    42  32  67 N20G30    29.82R
6HR MIN TEMP:  39; 6HR MAX TEMP:  42; 6HR PCP:  0.15;

RED OAK *      CLOUDY    45  30  57 NW20G28   29.94R
SHENANDOAH *   MOSUNNY   46  32  57 NW20G28   29.96R
$$

IAZ047>049-059>061-072>074-084-181900-
   CENTRAL IOWA

CITY           SKY/WX    TMP DP  RH WIND       PRES   REMARKS
AMES           CLOUDY    41  33  73 NW21G31   29.83R
6HR MIN TEMP:  36; 6HR MAX TEMP:  41; 6HR PCP:  0.02;

ANKENY *       CLOUDY    41  32  70 NW18G29   29.84R
BOONE *        CLOUDY    41  28  60 NW20      29.82S
CHARITON *     CLOUDY    41  36  81 NW17G24   29.79R
DES MOINES     PTSUNNY   42  31  64 NW18      29.83R
6HR MIN TEMP:  38; 6HR MAX TEMP:  43; 6HR PCP:  0.02;

GRINNELL*      CLOUDY    39  34  80 NW17G24   29.77F WCI  30
KNOXVILLE *    CLOUDY    41  32  70 NW18G26   29.77S
MARSHALLTOWN   PTSUNNY   39  33  79 NW18      29.78S WCI  30
6HR MIN TEMP:  37; 6HR MAX TEMP:  40; 6HR PCP: TRACE;

NEWTON *       PTSUNNY   39  34  81 NW20      29.79S WCI  30
PELLA *        PTSUNNY   39  35  83 NW17G24   29.79S WCI  30
PERRY *          N/A     41  31  68 NW16G30   29.86S
$$

IAZ004>006-015-016-023>025-035-036-181900-
   NORTH CENTRAL IOWA

CITY           SKY/WX    TMP DP  RH WIND       PRES   REMARKS
ALGONA *       CLOUDY    37  25  60 NW18G29   29.87R WCI  27
CLARION *      MOSUNNY   37  32  81 NW22      29.84R WCI  27
ESTHERVILLE    SUNNY     34  23  64 NW24G33   29.90R WCI  21
6HR MIN TEMP:  26; 6HR MAX TEMP:  34;

FORT DODGE *   MOSUNNY   37  26  64 NW13G22   29.87R WCI  29
MASON CITY     SUNNY     37  28  70 NW23      29.82R WCI  26
6HR MIN TEMP:  34; 6HR MAX TEMP:  37;

FOREST CITY *    N/A     36  30  80 NW17G24   29.83R WCI  25
WEBSTER CITY * MOSUNNY   41  32  70 NW26      29.83R
IOWA FALLS *     N/A     39  32  75 NW24G30   29.80S WCI  28
$$

IAZ007>011-017>019-026>030-037>042-050>054-066-181900-
   NORTHEAST IOWA

CITY           SKY/WX    TMP DP  RH WIND       PRES   REMARKS
CEDAR RAPIDS   CLOUDY    38  35  89 N21G30    29.71F WCI  28
6HR MIN TEMP:  38; 6HR MAX TEMP:  39; 6HR PCP:  0.11;

CHARLES CITY * CLOUDY    39  36  87 NW15G24   29.77S WCI  31
CLINTON *      CLOUDY    39  36  89 NW16      29.65R WCI  30
DECORAH *      PTSUNNY   37  32  81 N12G18    29.72S WCI  30
DUBUQUE        CLOUDY    37  35  92 N17G26    29.68R FOG     WCI  27
6HR MIN TEMP:  35; 6HR MAX TEMP:  37; 6HR PCP:  0.11;

MONTICELLO *   CLOUDY    39  36  87 NW21G26   29.70R WCI  29
OELWEIN *      CLOUDY    37  36  93 N17G26    29.74S WCI  28
WATERLOO       CLOUDY    40  33  76 NW16      29.76R WCI  31
6HR MIN TEMP:  36; 6HR MAX TEMP:  40; 6HR PCP: TRACE;

$$

IAZ064-065-067-068-078-181900-
   EAST CENTRAL IOWA

CITY           SKY/WX    TMP DP  RH WIND       PRES   REMARKS
DAVENPORT      CLOUDY    39  37  92 N14       29.67R WCI  31
6HR MIN TEMP:  37; 6HR MAX TEMP:  40; 6HR PCP:  0.20;

IOWA CITY      CLOUDY    41  36  82 NW20G35   29.71F
6HR MIN TEMP:  41; 6HR MAX TEMP:  42; 6HR PCP:  0.11;

MT. PLEASANT * CLOUDY    39  38  97 NW21G30   29.67F WCI  29
MUSCATINE *    CLOUDY    41  37  87 NW20      29.68F
QUAD CITIES    CLOUDY    40  36  86 N14G24    29.64R WCI  32
6HR MIN TEMP:  39; 6HR MAX TEMP:  43; 6HR PCP:  0.17;

$$

IAZ062-063-075>077-085>089-095>099-181900-
   SOUTHEAST IOWA

CITY           SKY/WX    TMP DP  RH WIND       PRES   REMARKS
BURLINGTON     LGT RAIN  39  38  96 N18G24    29.65S WCI  30
6HR MIN TEMP:  37; 6HR MAX TEMP:  44; 6HR PCP:  0.43;

FAIRFIELD *    CLOUDY    41  37  87 NW23G35   29.70S
FORT MADISON * LGT RAIN  39  39 100 NW17      29.67S WCI  30
KEOKUK *       LGT RAIN  39  37  93 N12G21    29.67R WCI  32
OSKALOOSA *      N/A     39  35  83 N20G30    29.75S WCI  30
OTTUMWA        CLOUDY    41  35  79 N23G32    29.75R
6HR MIN TEMP:  39; 6HR MAX TEMP:  41; 6HR PCP:  0.11;

WASHINGTON *   CLOUDY    39  39 100 N24       29.70F WCI  28
$$

ABBREVIATIONS USED IN REMARKS
   TC - TEMPERATURES IN CELSIUS
  WCI - WIND CHILL INDEX
   HX - HEAT INDEX
  VSB - VISIBILITY
$$





USA.gov is the U.S. government's official web portal to all federal, state and local government web resources and services.